Facebook Twitter

Wetterstation Murau

aktuelles Wetter
  Temperatur Wetter Niederschlag Luftdruck Wind
Fr, 20:00 Uhr 1° - 0 mm 1021.2 hPa 0 km/h
Fr, 19:00 Uhr 1° - 2 mm 1021.2 hPa 7 km/h SO
Fr, 18:00 Uhr 1° - 0 mm 1020.8 hPa 11 km/h O
Fr, 17:00 Uhr 1° - 0.1 mm 1020.4 hPa 11 km/h O
Fr, 16:00 Uhr 1° - 0.1 mm 1019.8 hPa 11 km/h O
Fr, 15:00 Uhr 2° - 0 mm 1019.5 hPa 11 km/h O
Fr, 14:00 Uhr 2° - 0.1 mm 1019.5 hPa 14 km/h O
Fr, 13:00 Uhr 2° - 2 mm 1019.7 hPa 11 km/h O
Fr, 12:00 Uhr 1° - 0.5 mm 1020.3 hPa 7 km/h O
Fr, 11:00 Uhr 1° - 0.5 mm 1020.9 hPa 4 km/h O
Fr, 10:00 Uhr 1° - 1 mm 1021 hPa 4 km/h O
Fr, 09:00 Uhr 1° - 0.5 mm 1020.9 hPa 7 km/h O
Fr, 08:00 Uhr 0° - 0.3 mm 1021 hPa 4 km/h O
Fr, 07:00 Uhr 0° - 3 mm 1020.9 hPa 0 km/h O
Fr, 06:00 Uhr 0° - 0.4 mm 1021.1 hPa 0 km/h O
Fr, 05:00 Uhr 0° - 0.6 mm 1021.5 hPa 0 km/h O
Fr, 04:00 Uhr 0° - 1 mm 1021.9 hPa 0 km/h O
Fr, 03:00 Uhr 0° - 0.3 mm 1022.2 hPa 0 km/h O
Fr, 02:00 Uhr 1° - 0.2 mm 1022.2 hPa 0 km/h O
Fr, 01:00 Uhr 0° - 1 mm 1022.9 hPa 0 km/h O

Alle Zeitangaben MEZ